,,PA_Meas_PMT16A,,PR_Meas_QMR101_102,,RH_Meas_QMH101,,SR_Meas_QMS101,,TA_Meas_QMH101,,GenWind,,GenWind,
time,status,PA,status,PR,status,RH,status,SR,status,TA,status,DirAvg,status,SpdAvg,
2016-09-15, 00:17:04,VALID,917.7,VALID,0,INVALID,112.941,VALID,52.861,VALID,22.8404,VALID,55,VALID,0,
2016-09-15, 14:13:04,VALID,918.959,VALID,0,INVALID,117.85,VALID,137.525,VALID,20.6015,VALID,348,VALID,0,
2016-09-15, 14:15:04,VALID,919.586,VALID,0,INVALID,118.216,VALID,120.871,VALID,20.6405,VALID,323,VALID,0,
2016-09-15, 14:16:04,VALID,918.998,VALID,0,INVALID,118.308,VALID,124.739,VALID,20.7006,VALID,352,VALID,0,
2016-09-15, 14:18:04,VALID,920.269,VALID,0,INVALID,118.468,VALID,116.144,VALID,20.8551,VALID,48,VALID,0,
2016-09-15, 14:19:04,VALID,921.273,VALID,0,INVALID,118.521,VALID,120.656,VALID,20.912,VALID,25,VALID,0,
2016-09-15, 14:20:04,INVALID,919.204,VALID,0,INVALID,118.697,VALID,144.079,VALID,20.9917,VALID,14,VALID,0,
2016-09-15, 14:21:04,VALID,919.105,VALID,0,INVALID,118.803,VALID,172.228,VALID,21.0502,VALID,16,VALID,0,
2016-09-15, 14:22:04,VALID,919.089,VALID,0,INVALID,118.902,VALID,152.781,VALID,21.1298,VALID,360,VALID,0,
2016-09-15, 14:23:04,VALID,920.251,VALID,0,INVALID,119.047,VALID,126.351,VALID,21.1673,VALID,16,VALID,0,
2016-09-15, 14:24:04,VALID,920.49,VALID,0,INVALID,119.139,VALID,131.508,VALID,21.2258,VALID,328,VALID,0,
2016-09-15, 14:25:04,VALID,919.145,VALID,0,INVALID,119.093,VALID,159.443,VALID,21.2453,VALID,25,VALID,0,
2016-09-15, 14:26:04,VALID,920.103,VALID,0,INVALID,119.017,VALID,129.789,VALID,21.3038,VALID,19,VALID,0,
2016-09-15, 14:27:04,VALID,920.586,VALID,0,INVALID,118.811,VALID,132.905,VALID,21.3234,VALID,13,VALID,0,
2016-09-15, 14:28:04,INVALID,918.544,VALID,0,INVALID,118.597,VALID,120.442,VALID,21.3624,VALID,24,VALID,0,
2016-09-15, 14:29:04,VALID,918.976,VALID,0,INVALID,118.514,VALID,117.756,VALID,21.4404,VALID,37,VALID,0,
2016-09-15, 14:30:04,VALID,919.463,VALID,0,INVALID,118.27,VALID,121.194,VALID,21.4583,VALID,22,VALID,0,
2016-09-15, 14:31:04,VALID,921.326,VALID,0,INVALID,117.995,VALID,133.764,VALID,21.4778,VALID,23,VALID,0,
2016-09-15, 14:32:04,INVALID,919.206,VALID,0,INVALID,117.797,VALID,131.615,VALID,21.5575,VALID,26,VALID,0,
2016-09-15, 14:33:04,VALID,922.368,VALID,0,INVALID,117.423,VALID,112.921,VALID,21.5965,VALID,13,VALID,0,
2016-09-15, 14:34:04,INVALID,920.164,VALID,0,INVALID,116.73,VALID,123.665,VALID,21.5185,VALID,295,VALID,0,
2016-09-15, 14:35:04,VALID,920.475,VALID,0,INVALID,116.829,VALID,134.946,VALID,21.4404,VALID,295,VALID,0,
2016-09-15, 14:36:04,VALID,919.773,VALID,0,INVALID,117.233,VALID,115.499,VALID,21.4014,VALID,328,VALID,0,
2016-09-15, 14:37:04,VALID,921.723,VALID,0,INVALID,117.401,VALID,110.45,VALID,21.3803,VALID,10,VALID,0,
2016-09-15, 14:38:04,INVALID,919.376,VALID,0,INVALID,117.805,VALID,96.1598,VALID,21.4193,VALID,11,VALID,0,
2016-09-15, 14:39:04,VALID,919.397,VALID,0,INVALID,118.071,VALID,110.987,VALID,21.499,VALID,30,VALID,0,
2016-09-15, 14:40:04,INVALID,916.95,VALID,0,INVALID,117.934,VALID,118.4,VALID,21.4973,VALID,24,VALID,0,
2016-09-15, 14:41:04,INVALID,921.42,VALID,0,INVALID,117.706,VALID,135.054,VALID,21.5168,VALID,23,VALID,0,
2016-09-15, 14:42:04,VALID,919.501,VALID,0,INVALID,117.675,VALID,153.211,VALID,21.5965,VALID,19,VALID,0,
2016-09-15, 14:43:04,VALID,919.416,VALID,0,INVALID,117.683,VALID,167.501,VALID,21.6534,VALID,14,VALID,0,
2016-09-15, 14:44:04,VALID,919.525,VALID,0,INVALID,117.202,VALID,139.244,VALID,21.712,VALID,331,VALID,0,
2016-09-15, 14:45:04,INVALID,922.047,VALID,0,INVALID,116.249,VALID,113.458,VALID,21.6941,VALID,326,VALID,0,
2016-09-15, 14:46:04,VALID,919.402,VALID,0,INVALID,116.775,VALID,152.889,VALID,21.7331,VALID,19,VALID,0,
2016-09-15, 14:47:04,VALID,919.457,VALID,0,INVALID,117.157,VALID,167.501,VALID,21.751,VALID,338,VALID,0,
2016-09-15, 14:48:04,VALID,919.465,VALID,0,INVALID,117.065,VALID,222.94,VALID,21.8095,VALID,352,VALID,0,
2016-09-15, 14:49:04,VALID,919.471,VALID,0,INVALID,116.699,VALID,170.724,VALID,21.8079,VALID,347,VALID,0,
2016-09-15, 14:50:04,VALID,919.465,VALID,0,INVALID,116.432,VALID,223.048,VALID,21.8681,VALID,306,VALID,0,
2016-09-15, 14:51:04,VALID,919.476,VALID,0,INVALID,116.318,VALID,137.202,VALID,21.9266,VALID,287,VALID,0,
2016-09-15, 14:53:04,VALID,919.489,VALID,0,INVALID,116.15,VALID,156.005,VALID,22.1608,VALID,22,VALID,0,
2016-09-15, 14:54:04,VALID,919.464,VALID,0,INVALID,115.38,VALID,169.327,VALID,22.1998,VALID,31,VALID,0,
2016-09-15, 14:55:04,VALID,919.46,VALID,0,INVALID,115.228,VALID,152.029,VALID,22.1413,VALID,346,VALID,0,
2016-09-15, 14:56:04,VALID,919.478,VALID,0,INVALID,115.716,VALID,149.558,VALID,22.0615,VALID,10,VALID,0,
2016-09-15, 14:57:04,VALID,919.465,VALID,0,INVALID,116.181,VALID,141.393,VALID,22.0827,VALID,352,VALID,0,
2016-09-15, 14:58:04,VALID,919.444,VALID,0,INVALID,115.868,VALID,136.773,VALID,22.0047,VALID,28,VALID,0,
2016-09-15, 14:59:04,VALID,919.502,VALID,0,INVALID,116.082,VALID,166.426,VALID,21.9461,VALID,16,VALID,0,
2016-09-15, 15:00:04,VALID,919.512,VALID,0,INVALID,116.715,VALID,136.558,VALID,21.9071,VALID,51,VALID,0,
2016-09-15, 15:01:04,VALID,919.52,VALID,0,INVALID,116.631,VALID,117.003,VALID,21.8664,VALID,28,VALID,0,
2016-09-15, 15:02:04,VALID,919.532,VALID,0,INVALID,116.631,VALID,122.913,VALID,21.8876,VALID,11,VALID,0,
2016-09-15, 15:03:04,VALID,919.522,VALID,0,INVALID,116.897,VALID,114.425,VALID,21.8485,VALID,36,VALID,0,
2016-09-15, 15:07:04,VALID,919.505,VALID,0,INVALID,116.219,VALID,144.508,VALID,22.0047,VALID,20,VALID,0,
2016-09-15, 15:08:04,VALID,919.508,VALID,0,INVALID,116.379,VALID,138.062,VALID,22.0242,VALID,23,VALID,0,
2016-09-15, 15:09:04,VALID,919.505,VALID,0,INVALID,116.31,VALID,122.913,VALID,22.0615,VALID,34,VALID,0,
2016-09-15, 15:10:04,VALID,919.502,VALID,0,INVALID,115.632,VALID,120.227,VALID,22.0615,VALID,169,VALID,0,
2016-09-15, 15:11:04,VALID,919.526,VALID,0,INVALID,115.472,VALID,133.442,VALID,22.081,VALID,183,VALID,0,
2016-09-15, 15:12:04,VALID,919.538,VALID,0,INVALID,115.647,VALID,131.078,VALID,22.1005,VALID,8,VALID,0,
2016-09-15, 15:13:04,VALID,919.511,VALID,0,INVALID,115.594,VALID,127.748,VALID,22.0208,VALID,11,VALID,0,
2016-09-15, 15:14:04,VALID,919.553,VALID,0,INVALID,116.089,VALID,146.013,VALID,21.9835,VALID,333,VALID,0,
2016-09-15, 15:15:04,VALID,919.536,VALID,0,INVALID,116.654,VALID,145.905,VALID,21.9623,VALID,6,VALID,0,
2016-09-15, 15:16:04,VALID,919.508,VALID,0,INVALID,116.768,VALID,116.574,VALID,22.0225,VALID,25,VALID,0,
2016-09-15, 15:19:04,VALID,919.463,VALID,0,INVALID,116.981,VALID,102.821,VALID,21.829,VALID,18,VALID,0.338672,
2016-09-15, 15:20:04,VALID,919.464,VALID,0,INVALID,116.859,VALID,104.11,VALID,21.79,VALID,357,VALID,1.19648,
2016-09-15, 15:21:04,VALID,919.453,VALID,0,INVALID,116.593,VALID,98.5235,VALID,21.7688,VALID,7,VALID,1.09766,
2016-09-15, 15:22:04,VALID,919.433,VALID,0,INVALID,116.852,VALID,93.7961,VALID,21.7477,VALID,16,VALID,0,
2016-09-15, 15:23:04,VALID,919.438,VALID,0,INVALID,117.157,VALID,102.929,VALID,21.7493,VALID,24,VALID,0,
2016-09-15, 15:24:04,VALID,919.464,VALID,0,INVALID,117.042,VALID,120.442,VALID,21.7672,VALID,5,VALID,1.01563,
2016-09-15, 15:25:04,VALID,919.448,VALID,0,INVALID,116.913,VALID,127.318,VALID,21.8095,VALID,351,VALID,0,
2016-09-15, 15:26:04,VALID,919.464,VALID,0,INVALID,116.593,VALID,136.558,VALID,21.8079,VALID,14,VALID,0,
2016-09-15, 15:27:04,VALID,919.486,VALID,0,INVALID,116.516,VALID,180.071,VALID,21.8469,VALID,12,VALID,0.171094,
2016-09-15, 15:28:04,VALID,919.527,VALID,0,INVALID,115.96,VALID,289.554,VALID,21.8664,VALID,315,VALID,0,
2016-09-15, 15:29:04,VALID,919.512,VALID,0,INVALID,115.655,VALID,225.626,VALID,21.8664,VALID,342,VALID,0,
2016-09-15, 15:30:04,VALID,919.539,VALID,0,INVALID,116.196,VALID,175.989,VALID,21.9444,VALID,288,VALID,0,
2016-09-15, 15:31:04,VALID,919.573,VALID,0,INVALID,116.288,VALID,196.94,VALID,22.0225,VALID,296,VALID,0,
2016-09-15, 15:32:04,VALID,919.574,VALID,0,INVALID,115.853,VALID,285.149,VALID,22.1396,VALID,18,VALID,0,
2016-09-15, 15:33:04,VALID,919.566,VALID,0,INVALID,114.427,VALID,267.099,VALID,22.2176,VALID,305,VALID,0,
2016-09-15, 15:34:04,VALID,919.593,VALID,0,INVALID,114.115,VALID,286.868,VALID,22.2762,VALID,357,VALID,0,
2016-09-15, 15:35:04,VALID,919.572,VALID,0,INVALID,114.458,VALID,279.562,VALID,22.4128,VALID,295,VALID,0,
2016-09-15, 15:36:04,VALID,919.564,VALID,0,INVALID,112.407,VALID,294.389,VALID,22.5103,VALID,359,VALID,0,
2016-09-15, 15:37:04,VALID,919.564,VALID,0,INVALID,110.715,VALID,196.08,VALID,22.5884,VALID,355,VALID,0,
2016-09-15, 15:38:04,VALID,919.572,VALID,0,INVALID,109.099,VALID,186.088,VALID,22.6665,VALID,314,VALID,0,
2016-09-15, 15:39:04,VALID,919.586,VALID,0,VALID,104,VALID,288.694,VALID,22.6877,VALID,1,VALID,0,
2016-09-15, 15:40:04,VALID,919.592,VALID,0,VALID,104,VALID,348.324,VALID,22.7463,VALID,15,VALID,0,
2016-09-15, 15:41:04,VALID,919.575,VALID,0,VALID,104,VALID,207.791,VALID,22.8421,VALID,2,VALID,0,
2016-09-15, 15:42:04,VALID,919.583,VALID,0,INVALID,109.808,VALID,272.363,VALID,22.9787,VALID,349,VALID,0,
2016-09-15, 15:43:04,VALID,919.607,VALID,0,VALID,104,VALID,221.329,VALID,23.1154,VALID,11,VALID,0,
2016-09-15, 15:44:04,VALID,919.59,VALID,0,VALID,98.9824,VALID,172.228,VALID,23.213,VALID,352,VALID,0,
2016-09-15, 15:45:04,VALID,919.628,VALID,0,VALID,91.5877,VALID,608.976,VALID,23.2911,VALID,360,VALID,0,
2016-09-15, 15:46:04,VALID,919.668,VALID,0,VALID,89.3388,VALID,622.621,VALID,23.5253,VALID,325,VALID,0,
2016-09-15, 15:47:04,VALID,919.657,VALID,0,VALID,85.4814,VALID,474.245,VALID,23.701,VALID,276,VALID,0,
2016-09-15, 15:48:04,VALID,919.685,VALID,0,VALID,86.0912,VALID,457.27,VALID,23.7596,VALID,333,VALID,0,
2016-09-15, 15:49:04,VALID,919.682,VALID,0,VALID,85.2374,VALID,547.628,VALID,23.8572,VALID,241,VALID,0,
2016-09-15, 15:50:04,VALID,919.7,VALID,0,VALID,83.3468,VALID,279.132,VALID,23.9725,VALID,330,VALID,0,
2016-09-15, 15:51:04,VALID,919.697,VALID,0,VALID,83.0038,VALID,582.009,VALID,24.0115,VALID,296,VALID,0,
2016-09-15, 15:52:04,VALID,919.677,VALID,0,VALID,82.2719,VALID,603.175,VALID,24.1305,VALID,338,VALID,1.65195,
2016-09-15, 15:53:04,VALID,919.701,VALID,0,VALID,84.0558,VALID,556.115,VALID,24.0311,VALID,331,VALID,0.952734,
2016-09-15, 15:54:04,VALID,919.697,VALID,0,VALID,82.4625,VALID,276.124,VALID,24.0134,VALID,245,VALID,0.891797,
2016-09-15, 15:55:04,VALID,919.69,VALID,0,VALID,83.3011,VALID,598.77,VALID,23.8749,VALID,269,VALID,0,
2016-09-15, 15:56:04,VALID,919.682,VALID,0,VALID,83.6289,VALID,452.972,VALID,23.992,VALID,51,VALID,0.509766,
2016-09-15, 15:57:04,VALID,919.672,VALID,0,VALID,83.4612,VALID,609.729,VALID,24.1873,VALID,318,VALID,1.19297,
2016-09-15, 15:58:04,VALID,919.666,VALID,0,VALID,82.0966,VALID,268.603,VALID,24.4216,VALID,20,VALID,1.54609,
2016-09-15, 15:59:04,VALID,919.663,VALID,0,VALID,81.2961,VALID,620.043,VALID,24.5387,VALID,324,VALID,0.464844,
2016-09-15, 16:00:04,VALID,919.623,VALID,0,VALID,79.7486,VALID,547.198,VALID,24.5973,VALID,261,VALID,0,
2016-09-15, 16:01:04,VALID,919.632,VALID,0,VALID,78.2696,VALID,302.984,VALID,24.6949,VALID,264,VALID,0,
2016-09-15, 16:02:04,VALID,919.649,VALID,0,VALID,78.6127,VALID,661.623,VALID,24.6559,VALID,2,VALID,0,
2016-09-15, 16:03:04,VALID,919.612,VALID,0,VALID,79.1997,VALID,198.659,VALID,24.5564,VALID,10,VALID,0.05,
2016-09-15, 16:04:04,VALID,919.645,VALID,0,VALID,80.206,VALID,679.888,VALID,24.5973,VALID,14,VALID,0,
2016-09-15, 16:05:04,VALID,919.626,VALID,0,VALID,79.558,VALID,615.208,VALID,24.693,VALID,12,VALID,0,
2016-09-15, 16:06:04,VALID,919.662,VALID,0,VALID,77.5835,VALID,705.781,VALID,24.8102,VALID,347,VALID,0,
2016-09-15, 16:07:04,VALID,919.651,VALID,0,VALID,78.3916,VALID,582.868,VALID,24.7711,VALID,16,VALID,0,
2016-09-15, 16:08:04,VALID,919.694,VALID,0,VALID,78.6127,VALID,549.239,VALID,24.8492,VALID,291,VALID,0,
2016-09-15, 16:09:04,VALID,919.68,VALID,0,VALID,77.0727,VALID,708.789,VALID,24.7516,VALID,251,VALID,0,
2016-09-15, 16:10:04,VALID,919.678,VALID,0,VALID,79.1539,VALID,339.084,VALID,24.4392,VALID,284,VALID,0,
2016-09-15, 16:11:04,VALID,919.695,VALID,0,VALID,78.8337,VALID,326.729,VALID,24.3239,VALID,253,VALID,0,
2016-09-15, 16:12:04,VALID,919.689,VALID,0,VALID,79.1387,VALID,225.519,VALID,24.2245,VALID,290,VALID,0,
2016-09-15, 16:13:04,VALID,919.69,VALID,0,VALID,80.6176,VALID,566.645,VALID,24.1854,VALID,252,VALID,0,
2016-09-15, 16:14:04,VALID,919.708,VALID,0,VALID,80.1983,VALID,368.953,VALID,24.2049,VALID,238,VALID,0,
2016-09-15, 16:15:04,VALID,919.705,VALID,0,VALID,81.3037,VALID,382.383,VALID,24.2049,VALID,297,VALID,0,
2016-09-15, 16:16:04,VALID,919.685,VALID,0,VALID,75.6777,VALID,408.706,VALID,24.244,VALID,298,VALID,0.107813,
2016-09-15, 16:17:04,VALID,919.677,VALID,0,VALID,76.8212,VALID,525.172,VALID,24.0683,VALID,215,VALID,0,
2016-09-15, 16:18:04,VALID,919.654,VALID,0,VALID,78.1324,VALID,672.044,VALID,24.1836,VALID,206,VALID,0,
2016-09-15, 16:19:04,VALID,919.657,VALID,0,VALID,76.5848,VALID,654.854,VALID,24.4978,VALID,348,VALID,0,
2016-09-15, 16:20:04,VALID,919.67,VALID,0,VALID,74.3054,VALID,636.911,VALID,24.7497,VALID,321,VALID,0,
2016-09-15, 16:21:04,VALID,919.677,VALID,0,VALID,74.4274,VALID,566.645,VALID,24.7907,VALID,246,VALID,1.26133,
2016-09-15, 16:22:04,VALID,919.657,VALID,0,VALID,72.4987,VALID,366.804,VALID,24.6131,VALID,275,VALID,1.11563,
2016-09-15, 16:23:04,VALID,919.662,VALID,0,VALID,73.444,VALID,535.916,VALID,24.3007,VALID,226,VALID,0.290234,
2016-09-15, 16:24:04,VALID,919.651,VALID,0,VALID,73.8175,VALID,522.271,VALID,24.2403,VALID,206,VALID,0,
2016-09-15, 16:25:04,VALID,919.639,VALID,0,VALID,74.8391,VALID,411.822,VALID,24.3593,VALID,337,VALID,0.0121094,
2016-09-15, 16:26:04,VALID,919.641,VALID,0,VALID,74.0615,VALID,467.262,VALID,24.2812,VALID,248,VALID,0.00429688,
2016-09-15, 16:27:04,VALID,919.599,VALID,0,VALID,76.1351,VALID,513.998,VALID,24.1232,VALID,324,VALID,0.296484,
2016-09-15, 16:28:04,VALID,919.568,VALID,0,VALID,76.0817,VALID,555.578,VALID,24.1836,VALID,59,VALID,0.00117188,
2016-09-15, 16:29:04,VALID,919.608,VALID,0,VALID,76.0207,VALID,554.934,VALID,24.3007,VALID,12,VALID,0,
2016-09-15, 16:30:04,VALID,919.61,VALID,0,VALID,75.3727,VALID,638.63,VALID,24.535,VALID,265,VALID,0,
2016-09-15, 16:31:04,VALID,919.582,VALID,0,VALID,74.0615,VALID,665.383,VALID,24.5545,VALID,293,VALID,0.457031,
2016-09-15, 16:32:04,VALID,919.58,VALID,0,VALID,74.5341,VALID,646.044,VALID,24.5917,VALID,267,VALID,0,
2016-09-15, 16:33:04,VALID,919.553,VALID,0,VALID,74.0767,VALID,662.16,VALID,24.6131,VALID,244,VALID,0,
2016-09-15, 16:34:04,VALID,919.553,VALID,0,VALID,75.9826,VALID,673.871,VALID,24.6131,VALID,304,VALID,0.00976563,
2016-09-15, 16:35:04,VALID,919.539,VALID,0,VALID,75.8759,VALID,677.739,VALID,24.6131,VALID,5,VALID,1.21914,
2016-09-15, 16:36:04,VALID,919.562,VALID,0,VALID,73.0476,VALID,705.673,VALID,24.574,VALID,238,VALID,0.621094,
2016-09-15, 16:37:04,VALID,919.542,VALID,0,VALID,75.548,VALID,717.599,VALID,24.6326,VALID,284,VALID,0,
2016-09-15, 16:38:04,VALID,919.547,VALID,0,VALID,74.5189,VALID,746.609,VALID,24.6912,VALID,244,VALID,0,
2016-09-15, 16:39:04,VALID,919.522,VALID,0,VALID,75.3194,VALID,784.213,VALID,24.6112,VALID,249,VALID,1.09687,
2016-09-15, 16:40:04,VALID,919.523,VALID,0,VALID,73.8252,VALID,743.708,VALID,24.6521,VALID,254,VALID,0.183594,
2016-09-15, 16:41:04,VALID,919.522,VALID,0,VALID,74.8772,VALID,784.965,VALID,24.7283,VALID,223,VALID,0,
2016-09-15, 16:42:04,VALID,919.503,VALID,0,VALID,73.8633,VALID,823.751,VALID,25.0817,VALID,216,VALID,0,
2016-09-15, 16:43:04,VALID,919.523,VALID,0,VALID,72.3157,VALID,205.75,VALID,25.3141,VALID,217,VALID,0.323438,
2016-09-15, 16:44:04,VALID,919.54,VALID,0,VALID,71.5381,VALID,249.586,VALID,25.4312,VALID,242,VALID,0,
2016-09-15, 16:45:04,VALID,919.509,VALID,0,VALID,71.8126,VALID,307.711,VALID,25.3922,VALID,280,VALID,0,
2016-09-15, 16:46:04,VALID,919.493,VALID,0,VALID,71.6601,VALID,272.256,VALID,25.0388,VALID,254,VALID,0.573438,
2016-09-15, 16:47:04,VALID,919.458,VALID,0,VALID,72.4377,VALID,769.923,VALID,24.865,VALID,231,VALID,0.921094,
2016-09-15, 16:48:04,VALID,919.461,VALID,0,VALID,73.627,VALID,795.817,VALID,24.8845,VALID,284,VALID,0,
2016-09-15, 16:49:04,VALID,919.427,VALID,0,VALID,73.4821,VALID,435.459,VALID,25.0798,VALID,329,VALID,0.703516,
2016-09-15, 16:50:04,VALID,919.398,VALID,0,VALID,70.4175,VALID,301.587,VALID,25.1383,VALID,3,VALID,1.56172,
2016-09-15, 16:51:04,VALID,919.42,VALID,0,VALID,71.6677,VALID,757.245,VALID,25.0993,VALID,239,VALID,0,
2016-09-15, 16:52:04,VALID,919.404,VALID,0,VALID,70.6386,VALID,763.477,VALID,25.0017,VALID,264,VALID,0.251563,
2016-09-15, 16:53:04,VALID,919.437,VALID,0,VALID,70.6996,VALID,759.072,VALID,25.0017,VALID,276,VALID,1.14766,
2016-09-15, 16:54:04,VALID,919.411,VALID,0,VALID,71.0197,VALID,561.702,VALID,24.9431,VALID,302,VALID,0.967578,
2016-09-15, 16:55:04,VALID,919.449,VALID,0,VALID,74.8696,VALID,784.535,VALID,24.9431,VALID,264,VALID,0.0683594,
2016-09-15, 16:56:04,VALID,919.413,VALID,0,VALID,71.2713,VALID,828.586,VALID,24.9431,VALID,258,VALID,0.93125,
2016-09-15, 16:57:04,VALID,919.428,VALID,0,VALID,72.0641,VALID,848.893,VALID,24.8826,VALID,252,VALID,2.11094,
2016-09-15, 16:58:04,VALID,919.406,VALID,0,VALID,72.2624,VALID,693.318,VALID,24.785,VALID,270,VALID,1.31641,
2016-09-15, 16:59:04,VALID,919.398,VALID,0,VALID,72.7808,VALID,257.751,VALID,24.8436,VALID,267,VALID,0.0175781,
2016-09-15, 17:00:04,VALID,919.429,VALID,0,VALID,70.8215,VALID,515.825,VALID,25.0017,VALID,279,VALID,1.49844,
2016-09-15, 17:01:04,VALID,919.458,VALID,0,VALID,68.5193,VALID,850.074,VALID,24.8631,VALID,261,VALID,1.1043,
2016-09-15, 17:02:04,VALID,919.357,VALID,0,VALID,71.0579,VALID,282.785,VALID,24.8241,VALID,259,VALID,0.658203,
2016-09-15, 17:03:04,VALID,919.383,VALID,0,VALID,72.0413,VALID,933.341,VALID,24.9021,VALID,249,VALID,0.113281,
2016-09-15, 17:04:04,VALID,919.359,VALID,0,VALID,71.6372,VALID,350.795,VALID,25.1364,VALID,14,VALID,1.80313,
2016-09-15, 17:05:04,VALID,919.347,VALID,0,VALID,72.7274,VALID,342.737,VALID,25.2945,VALID,302,VALID,0.0257812,
2016-09-15, 17:06:04,VALID,919.331,VALID,0,VALID,68.626,VALID,992.864,VALID,25.1755,VALID,269,VALID,2.21719,
2016-09-15, 17:07:04,VALID,919.337,VALID,0,VALID,69.3426,VALID,290.306,VALID,24.9607,VALID,263,VALID,0.560156,
2016-09-15, 17:08:04,VALID,919.366,VALID,0,VALID,70.3031,VALID,256.892,VALID,24.8045,VALID,255,VALID,3.22852,
2016-09-15, 17:09:04,VALID,919.37,VALID,0,VALID,72.6512,VALID,191.46,VALID,24.5898,VALID,249,VALID,3.27031,
2016-09-15, 17:10:04,VALID,919.31,VALID,0,VALID,74.5494,VALID,191.997,VALID,24.3946,VALID,244,VALID,2.15508,
2016-09-15, 17:11:04,VALID,919.341,VALID,0,VALID,75.266,VALID,603.819,VALID,24.3165,VALID,250,VALID,2.45039,
2016-09-15, 17:12:04,VALID,919.36,VALID,0,VALID,75.6777,VALID,794.85,VALID,24.3361,VALID,248,VALID,1.72344,
2016-09-15, 17:13:04,VALID,919.332,VALID,0,VALID,74.4427,VALID,272.041,VALID,24.3165,VALID,248,VALID,2.31641,
2016-09-15, 17:14:04,VALID,919.331,VALID,0,VALID,74.6714,VALID,272.578,VALID,24.3184,VALID,265,VALID,0.648047,
2016-09-15, 17:15:04,VALID,919.355,VALID,0,VALID,72.1175,VALID,887.786,VALID,24.416,VALID,345,VALID,0.845703,
2016-09-15, 17:16:04,VALID,919.385,VALID,0,VALID,74.3512,VALID,279.132,VALID,24.6288,VALID,272,VALID,0.20625,
2016-09-15, 17:17:04,VALID,919.331,VALID,0,VALID,70.4022,VALID,453.724,VALID,24.7674,VALID,281,VALID,1.14258,
2016-09-15, 17:18:04,VALID,919.358,VALID,0,VALID,69.8534,VALID,799.255,VALID,24.7655,VALID,279,VALID,1.21719,
2016-09-15, 17:19:04,VALID,919.326,VALID,0,VALID,68.3058,VALID,314.265,VALID,24.7283,VALID,260,VALID,2.10117,
2016-09-15, 17:20:04,VALID,919.323,VALID,0,VALID,69.861,VALID,188.237,VALID,24.6679,VALID,254,VALID,2.27031,
2016-09-15, 17:21:04,VALID,919.354,VALID,0,VALID,71.1493,VALID,188.667,VALID,24.5917,VALID,256,VALID,0.980859,
2016-09-15, 17:22:04,VALID,919.332,VALID,0,VALID,72.6588,VALID,235.189,VALID,24.5331,VALID,251,VALID,2.48008,
2016-09-15, 17:23:04,VALID,919.309,VALID,0,VALID,74.0081,VALID,884.133,VALID,24.4355,VALID,249,VALID,0.926172,
2016-09-15, 17:24:04,VALID,919.324,VALID,0,VALID,74.8315,VALID,562.669,VALID,24.5722,VALID,259,VALID,0,
2016-09-15, 17:25:04,VALID,919.285,VALID,0,VALID,75.1898,VALID,202.419,VALID,24.7869,VALID,23,VALID,2.20781,
2016-09-15, 17:26:04,VALID,919.286,VALID,0,VALID,69.9906,VALID,878.976,VALID,24.9431,VALID,351,VALID,0.674219,
2016-09-15, 17:27:04,VALID,919.321,VALID,0,VALID,72.2852,VALID,901.324,VALID,25.0407,VALID,256,VALID,0.190625,
2016-09-15, 17:28:04,VALID,919.316,VALID,0,VALID,67.1547,VALID,930.226,VALID,25.1364,VALID,258,VALID,2.38594,
2016-09-15, 17:29:04,VALID,919.328,VALID,0,VALID,69.2587,VALID,266.239,VALID,25.1188,VALID,256,VALID,0.282031,
2016-09-15, 17:30:04,VALID,919.347,VALID,0,VALID,70.8901,VALID,445.881,VALID,25.0602,VALID,249,VALID,2.34648,
2016-09-15, 17:31:04,VALID,919.362,VALID,0,VALID,72.4529,VALID,222.403,VALID,24.9431,VALID,262,VALID,1.44766,
2016-09-15, 17:32:04,VALID,919.341,VALID,0,VALID,70.8444,VALID,663.449,VALID,24.8845,VALID,270,VALID,0.155469,
2016-09-15, 17:33:04,VALID,919.372,VALID,0,VALID,66.7583,VALID,955.904,VALID,24.865,VALID,259,VALID,0.489844,
2016-09-15, 17:34:04,VALID,919.365,VALID,0,VALID,71.4619,VALID,883.596,VALID,24.9431,VALID,259,VALID,2.07891,
2016-09-15, 17:35:04,VALID,919.411,VALID,0,VALID,70.1126,VALID,906.911,VALID,25.0212,VALID,257,VALID,1.72344,
2016-09-15, 17:36:04,VALID,919.405,VALID,0,VALID,69.9677,VALID,907.018,VALID,25.1774,VALID,277,VALID,1.18203,
2016-09-15, 17:37:04,VALID,919.377,VALID,0,VALID,69.1139,VALID,924.746,VALID,25.3922,VALID,198,VALID,0.0921875,
2016-09-15, 17:38:04,VALID,919.353,VALID,0,VALID,68.1381,VALID,938.498,VALID,25.607,VALID,249,VALID,1.12812,
2016-09-15, 17:39:04,VALID,919.325,VALID,0,VALID,67.4139,VALID,345.531,VALID,25.6655,VALID,281,VALID,0.660937,
2016-09-15, 17:40:04,VALID,919.306,VALID,0,VALID,66.6439,VALID,385.284,VALID,25.5093,VALID,265,VALID,1.32695,
2016-09-15, 17:41:04,VALID,919.307,VALID,0,VALID,68.6031,VALID,272.148,VALID,25.3336,VALID,243,VALID,0.640625,
2016-09-15, 17:42:04,VALID,919.249,VALID,0,VALID,68.0771,VALID,364.225,VALID,25.4507,VALID,21,VALID,0,
2016-09-15, 17:43:04,VALID,919.247,VALID,0,VALID,68.4202,VALID,307.819,VALID,25.566,VALID,257,VALID,1.24648,
2016-09-15, 17:44:04,VALID,919.235,VALID,0,VALID,70.5852,VALID,939.358,VALID,25.5874,VALID,252,VALID,1.39766,
2016-09-15, 17:45:04,VALID,919.188,VALID,0,VALID,69.8534,VALID,911.961,VALID,25.646,VALID,263,VALID,0,
2016-09-15, 17:46:04,VALID,919.166,VALID,0,VALID,64.1968,VALID,908.737,VALID,25.6851,VALID,256,VALID,0.10625,
2016-09-15, 17:47:04,VALID,919.114,VALID,0,VALID,65.0201,VALID,917.333,VALID,25.8628,VALID,167,VALID,0,
2016-09-15, 17:48:04,VALID,919.112,VALID,0,VALID,63.7165,VALID,888.001,VALID,26.0171,VALID,99,VALID,0,
2016-09-15, 17:49:04,VALID,919.116,VALID,0,VALID,66.3618,VALID,884.026,VALID,26.31,VALID,90,VALID,0,
2016-09-15, 17:50:04,VALID,919.112,VALID,0,VALID,64.7304,VALID,659.259,VALID,26.6226,VALID,278,VALID,0.0140625,
2016-09-15, 17:51:04,VALID,919.113,VALID,0,VALID,65.1497,VALID,773.039,VALID,26.857,VALID,301,VALID,0,
2016-09-15, 17:52:04,VALID,919.086,VALID,0,VALID,64.0824,VALID,626.489,VALID,26.7984,VALID,268,VALID,0.814844,
2016-09-15, 17:53:04,VALID,919.097,VALID,0,VALID,66.4305,VALID,758.857,VALID,26.5249,VALID,255,VALID,1.0543,
2016-09-15, 17:54:04,VALID,919.056,VALID,0,VALID,66.0721,VALID,795.172,VALID,26.308,VALID,280,VALID,2.17383,
2016-09-15, 17:55:04,VALID,919.003,VALID,0,VALID,61.3837,VALID,811.396,VALID,25.8589,VALID,252,VALID,2.31211,
2016-09-15, 17:56:04,VALID,918.973,VALID,0,VALID,66.7201,VALID,843.413,VALID,25.6245,VALID,201,VALID,0.423828,
2016-09-15, 17:57:04,VALID,919.007,VALID,0,VALID,67.6197,VALID,803.123,VALID,25.7437,VALID,262,VALID,0,
2016-09-15, 17:58:04,VALID,918.988,VALID,0,VALID,68.0085,VALID,878.654,VALID,25.8589,VALID,290,VALID,0.320703,
2016-09-15, 17:59:04,VALID,918.99,VALID,0,VALID,67.7036,VALID,870.703,VALID,26.0151,VALID,238,VALID,0.303906,